Location: Newark
(48.6461°N, 4.3644°W)
Time: 14:31:46
(UTC+00:00)

Transit 4A - Pass Details

Date: 25 January 2020
Orbit: 872 x 973 km, 66.8° (Epoch: 22 February)

Event Time Altitude Azimuth Distance (km) Brightness Sun altitude
Rises 15:01:24 0° 325° (NW) 3,475 10.7 14.4°
Reaches altitude 10° 15:03:54 10° 327° (NNW) 2,531 10.0 14.1°
Maximum altitude 15:09:45 76° 53° (NE) 905 8.0 13.5°
Drops below altitude 10° 15:15:36 10° 139° (SE) 2,534 10.4 12.9°
Sets 15:18:06 0° 141° (SE) 3,479 11.0 12.7°
